Weather History for Torrington, WY

Change the Weather History Date:

Sunday, November 18, 2012

  Actual Average Record
Temperature  
Mean Temperature 47 °F 35 °F  
Max Temperature 65 °F 48 °F 76 °F (2008)
Min Temperature 29 °F 21 °F -1 °F (2000)
Degree Days  
Heating Degree Days 18 30  
Month to date heating degree days 426 475  
Since 1 July heating degree days 1052 1185  
Cooling Degree Days 0 0  
Month to date cooling degree days 0 0  
Year to date cooling degree days 1021 678  
Moisture  
Dew Point 30 °F    
Average Humidity 58    
Maximum Humidity 89    
Minimum Humidity 26    
Precipitation  
Precipitation 0.00 in 0.01 in 0.02 in (2001)
Month to date precipitation 0.05 0.31  
Year to date precipitation 6.96 13.71  
Sea Level Pressure  
Sea Level Pressure 29.91 in    
Wind  
Wind Speed 10 mph (SSE)    
Max Wind Speed 26 mph    
Max Gust Speed 38 mph    
Visibility 10 miles    
Events      
T = Trace of Precipitation, MM = Missing Value Source: NWS Daily Summary

Daily Weather History Graph

Daily Weather History Graph

Search for Another Location

Airport:

Trip Planner

Search our weather history database for the weather conditions in past years. The results will help you decide how hot, cold, wet, or windy it might be!

Date:

Astronomy

Nov. 18, 2012 Rise Set
Actual Time 6:50 AM MST 4:32 PM MST
Civil Twilight 6:20 AM MST 5:02 PM MST
Nautical Twilight 5:46 AM MST 5:36 PM MST
Astronomical Twilight 5:13 AM MST 6:09 PM MST
Moon 11:18 AM MST (11/18) 9:56 PM MST (11/18)
Length of Visible Light 10h 42m
Length of Day
9h 41m
Waxing Crescent, 31% of the Moon is Illuminated
Nov 18
Waxing Crescent
Nov 20
First Quarter
Nov 28
Full
Dec 6
Last Quarter
Dec 13
New

Hourly Weather History & Observations

Time (MST) Temp. Windchill Dew Point Humidity Pressure Visibility Wind Dir Wind Speed Gust Speed Precip Events Conditions
12:53 AM 36.0 °F 29.6 °F 32.0 °F 86% 29.95 in 10.0 mi East 8.1 mph - N/A   Scattered Clouds
1:53 AM 39.0 °F 34.0 °F 33.1 °F 79% 29.94 in 10.0 mi East 6.9 mph - N/A   Overcast
2:53 AM 39.0 °F 34.0 °F 32.0 °F 76% 29.93 in 10.0 mi East 6.9 mph - N/A   Overcast
3:53 AM 39.0 °F 33.4 °F 30.9 °F 73% 29.91 in 10.0 mi ESE 8.1 mph - N/A   Clear
4:53 AM 37.0 °F 31.0 °F 30.0 °F 76% 29.92 in 10.0 mi ESE 8.1 mph - N/A   Clear
5:53 AM 36.0 °F 29.6 °F 30.0 °F 79% 29.92 in 10.0 mi SE 8.1 mph - N/A   Clear
6:53 AM 30.0 °F 22.4 °F 26.1 °F 85% 29.96 in 10.0 mi ENE 8.1 mph - N/A   Clear
7:53 AM 37.0 °F 32.4 °F 30.0 °F 76% 29.94 in 10.0 mi East 5.8 mph - N/A   Clear
8:53 AM 44.1 °F 41.5 °F 30.9 °F 60% 29.93 in 10.0 mi SE 4.6 mph - N/A   Clear
9:53 AM 54.0 °F - 33.1 °F 45% 29.89 in 10.0 mi South 6.9 mph - N/A   Clear
10:53 AM 61.0 °F - 30.9 °F 32% 29.87 in 10.0 mi WSW 17.3 mph 24.2 mph N/A   Clear
11:53 AM 64.0 °F - 30.9 °F 29% 29.83 in 10.0 mi West 19.6 mph 29.9 mph N/A   Clear
12:53 PM 64.0 °F - 30.0 °F 28% 29.84 in 10.0 mi West 18.4 mph 34.5 mph N/A   Clear
1:53 PM 64.9 °F - 28.9 °F 26% 29.82 in 10.0 mi West 23.0 mph 34.5 mph N/A   Clear
2:53 PM 63.0 °F - 28.0 °F 27% 29.83 in 10.0 mi WSW 20.7 mph 38.0 mph N/A   Clear
3:53 PM 61.0 °F - 28.9 °F 30% 29.85 in 10.0 mi West 19.6 mph 27.6 mph N/A   Clear
4:53 PM 57.0 °F - 28.9 °F 34% 29.89 in 10.0 mi West 16.1 mph 25.3 mph N/A   Clear
5:53 PM 52.0 °F - 30.0 °F 43% 29.94 in 10.0 mi West 8.1 mph - N/A   Clear
6:53 PM 50.0 °F - 30.0 °F 46% 29.98 in 10.0 mi SSE 4.6 mph - N/A   Clear
7:53 PM 50.0 °F - 30.9 °F 48% 29.96 in 10.0 mi South 3.5 mph - N/A   Clear
8:53 PM 44.1 °F 40.1 °F 30.0 °F 58% 29.99 in 10.0 mi SSE 6.9 mph - N/A   Clear
10:53 PM 43.0 °F 39.5 °F 30.9 °F 62% 29.97 in 10.0 mi ESE 5.8 mph - N/A   Clear
11:53 PM 43.0 °F 41.3 °F 30.9 °F 62% 29.98 in 10.0 mi SSW 3.5 mph - N/A   Clear